Location: Poughquag
(41.6090°N, 73.6820°W)
Time: 18:39:20
(UTC-04:00)

JY1SAT - Pass Details

Date: 17 September 2024
Orbit: 527 x 537 km, 97.5° (Epoch: 10 October)

Event Time Altitude Azimuth Distance (km) Brightness Sun altitude
Exits shadow 22:26:03 11° 330° (NNW) 1,704 ? -35.9°
Drops below altitude 10° 22:26:17 10° 331° (NNW) 1,794 ? -36.0°
Sets 22:28:32 0° 340° (NNW) 2,693 ? -36.3°
